TimeEDT,TemperatureF,Dew PointF,Humidity,Sea Level PressureIn,VisibilityMPH,Wind Direction,Wind SpeedMPH,Gust SpeedMPH,PrecipitationIn,Events,Conditions,WindDirDegrees,DateUTC
12:54 AM,64.4,46.4,52,29.98,10.0,SSE,5.8,-,N/A,,Clear,160,2012-10-26 04:54:00
1:54 AM,62.6,46.4,55,29.98,10.0,SSE,4.6,-,N/A,,Clear,150,2012-10-26 05:54:00
2:54 AM,62.1,46.9,58,29.97,10.0,South,5.8,-,N/A,,Clear,180,2012-10-26 06:54:00
3:54 AM,62.1,46.0,56,29.98,10.0,South,5.8,-,N/A,,Clear,180,2012-10-26 07:54:00
4:54 AM,61.0,46.0,58,29.99,10.0,South,4.6,-,N/A,,Clear,170,2012-10-26 08:54:00
5:54 AM,61.0,46.0,58,30.00,10.0,South,6.9,-,N/A,,Clear,180,2012-10-26 09:54:00
6:54 AM,57.0,46.0,67,30.01,10.0,South,4.6,-,N/A,,Clear,190,2012-10-26 10:54:00
7:54 AM,55.9,46.0,69,30.04,10.0,Calm,Calm,-,N/A,,Scattered Clouds,0,2012-10-26 11:54:00
8:54 AM,59.0,48.0,67,30.05,10.0,SSW,3.5,-,N/A,,Partly Cloudy,210,2012-10-26 12:54:00
9:54 AM,60.1,51.1,72,30.08,10.0,NNW,10.4,-,N/A,,Scattered Clouds,330,2012-10-26 13:54:00
11:54 AM,55.9,48.9,77,30.12,10.0,NNW,10.4,-,N/A,,Overcast,340,2012-10-26 15:54:00
12:04 PM,55.4,48.2,77,30.13,10.0,NNW,10.4,-,N/A,,Overcast,340,2012-10-26 16:04:00
12:54 PM,53.1,48.0,83,30.14,10.0,North,13.8,-,N/A,,Overcast,350,2012-10-26 16:54:00
1:54 PM,53.1,48.0,83,30.11,10.0,North,12.7,-,N/A,,Overcast,10,2012-10-26 17:54:00
2:54 PM,53.1,48.0,83,30.10,10.0,North,11.5,-,N/A,,Overcast,360,2012-10-26 18:54:00
3:09 PM,51.8,48.2,88,30.10,10.0,North,13.8,-,N/A,,Overcast,350,2012-10-26 19:09:00
3:54 PM,52.0,48.0,86,30.11,10.0,North,11.5,-,N/A,,Overcast,350,2012-10-26 19:54:00
4:07 PM,51.8,46.4,82,30.11,10.0,North,12.7,20.7,N/A,,Overcast,360,2012-10-26 20:07:00
4:54 PM,51.1,46.9,86,30.12,10.0,North,12.7,19.6,N/A,,Overcast,360,2012-10-26 20:54:00
5:27 PM,50.0,48.2,94,30.13,3.0,North,12.7,-,N/A,,Overcast,360,2012-10-26 21:27:00
5:54 PM,50.0,46.0,86,30.13,7.0,North,12.7,23.0,N/A,,Overcast,350,2012-10-26 21:54:00
6:54 PM,50.0,46.0,86,30.13,10.0,NNE,12.7,19.6,N/A,,Overcast,30,2012-10-26 22:54:00
7:54 PM,50.0,45.0,83,30.14,10.0,NNE,11.5,-,N/A,,Overcast,20,2012-10-26 23:54:00
8:10 PM,48.2,46.4,93,30.13,10.0,NNE,11.5,-,N/A,,Overcast,20,2012-10-27 00:10:00
8:26 PM,50.0,44.6,82,30.14,10.0,NNE,10.4,19.6,N/A,,Overcast,20,2012-10-27 00:26:00
8:54 PM,48.9,45.0,86,30.14,10.0,NNE,10.4,-,N/A,,Overcast,30,2012-10-27 00:54:00
9:21 PM,48.2,44.6,87,30.13,10.0,NNE,9.2,-,0.00,Rain,Light Rain,20,2012-10-27 01:21:00
9:54 PM,48.9,46.0,90,30.13,10.0,NNE,9.2,-,0.00,,Overcast,30,2012-10-27 01:54:00
10:54 PM,48.0,45.0,89,30.14,10.0,NNE,15.0,21.9,N/A,,Overcast,30,2012-10-27 02:54:00
11:54 PM,48.0,45.0,89,30.12,7.0,NNE,9.2,-,N/A,,Overcast,20,2012-10-27 03:54:00